Regional Weather Roundup
Issued by NWS

Home | Current Version | Previous Version | Text Only | Print | Product List | Glossary On
Versions: 1 2 3 4 5 6 7 8 9 10 11 12 13 14 15 16 17 18 19 20 21 22 23 24 25 26 27 28 29 30 31 32 33 34 35 36 37 38 39 40 41 42 43 44 45 46 47 48 49 50
000
ASUS43 KTOP 262259
RWRKS

WEATHER ROUNDUP FOR KANSAS
NATIONAL WEATHER SERVICE GOODLAND KS
600 PM CDT THU MAR 26 2015

NOTE:  "FAIR" INDICATES FEW OR NO CLOUDS BELOW 12,000 FEET WITH NO
SIGNIFICANT WEATHER AND/OR OBSTRUCTIONS TO VISIBILITY.

KSZ001>006-013>018-027>032-041>047-270000-
NORTHWEST KANSAS

CITY           SKY/WX    TMP DP  RH WIND       PRES   REMARKS
GOODLAND       CLOUDY    57  25  29 N22G30    30.08R
HAYS           CLOUDY    63  27  25 NW22G28   29.99S
HILL CITY      PTSUNNY   62  27  26 NW28G35   30.02R
RUSSELL        CLOUDY    62  31  31 W15       29.96F
$$

KSZ061>065-074>080-084>089-270000-
SOUTHWEST KANSAS

CITY           SKY/WX    TMP DP  RH WIND       PRES   REMARKS
DODGE CITY     CLOUDY    63  23  21 NW20      30.03F
ELKHART          N/A     62  23  22 NW8         N/A
GARDEN CITY    CLOUDY    61  24  24 NW21      30.05S
GREAT BEND     CLOUDY    63  34  34 W14       29.99F
LIBERAL        MOSUNNY   64  25  22 NW20      30.09F
$$

KSZ066>073-081>083-090>101-270000-
SOUTHEAST KANSAS

CITY           SKY/WX    TMP DP  RH WIND       PRES   REMARKS
CHANUTE        SUNNY     55  25  31 NW5       30.09F
COFFEYVILLE    SUNNY     56  25  30 N7        30.10F
HUTCHINSON     SUNNY     59  30  33 S12       30.03F
MEDICINE LODGE   N/A     62  31  31 W10       30.04F
NEWTON         SUNNY     55  30  38 S8        30.07F
PARSONS        SUNNY     56  27  32 VRB6      30.10F
WICHITA INTL   MOSUNNY   58  30  34 W10       30.06F
WICHITA JABRA  SUNNY     56  31  38 SW8       30.07F
WINFIELD       SUNNY     57  29  34 W8        30.10F
$$

KSZ007>012-019>026-033>040-048>060-102>105-270000-
NORTHEAST KANSAS

CITY           SKY/WX    TMP DP  RH WIND       PRES   REMARKS
CONCORDIA      PTSUNNY   55  29  36 S10       30.01F
EMPORIA        MOSUNNY   53  26  35 SW3       30.06F
LAWRENCE       PTSUNNY   50  27  40 W7        30.08F
MANHATTAN      CLOUDY    53  28  38 SW5       30.04F
OLATHE IND     MOSUNNY   50  27  40 NW6       30.09F
OLATHE EXE     SUNNY     50  25  37 N9        30.07F
SALINA         MOSUNNY   60  29  30 S9        30.01F
TOPEKA BILLARD CLOUDY    51  26  37 S3        30.07F
TOPEKA FORBES  CLOUDY    52  26  36 MISG      30.06F
$$


USA.gov is the U.S. government's official web portal to all federal, state and local government web resources and services.